HORS 4 (RS82S)

Last updated on Sun Jun 21 2026 00:03:20 GMT+0000 (Coordinated Universal Time)

1 61754U 24199V 26171.45049354 .00043608 00000+0 54030-3 0 9994 2 61754 97.2915 48.5786 0003432 238.4602 121.6320 15.59942914138155
UTC large
Height (km)
Speed (km/s)
/
Latitude / Longitude
Inclination (degrees)
Orbital Period (minutes)
Azimuth
Elevation
Range (km)
Doppler Factor

Next 0 passes for location: London (51.5072 / 0.1276)

No passes found over London.
HORS 4 (RS82S)